Volver al catálogo

FENGYUN 1C DEB

ActivoSSO
NORAD 36743·DEBRIS·🇨🇳 China

Lanzado May 10, 1999 desde Taiyuan Satellite Launch Center

Loading…

Próximos Pases (próximas 24 horas)

TLE

EnvejeciendoSource: Space-Track

Época: Sep 9, 2026, 22:17 UTC

1 36743U 99025EBR 26252.92850553  .00001607  00000-0  62577-3 0  9996
2 36743  98.6348 304.2794 0045383 296.2558  63.3964 14.30587232646138

Sigue FENGYUN 1C DEB en tiempo real con AllMySat

Download on the App Store